User: anonymous   Login
Location: Vancouver
(49.2500°N, 123.1330°W)
Time: 23:41:45
(UTC-08:00)
Language:

SO-67 - Orbit

View from above orbital plane
View from above orbital plane
View from above satellite
View from above satellite

Ground track
Ground track

The orbit data is extracted from the following two-line orbital elements,

1 35870U 09049F   16344.08131021  .00005772  00000-0  10020-3 0  9996
2 35870  97.1123 356.7450 0003787  68.4983 325.5229 15.51230093403735
Epoch (UTC): 09 December 2016 01:57:05
Eccentricity: 0.0003787
inclination: 97.1123°
perigee height: 410 km
apogee height: 416 km
right ascension of ascending node: 356.7450°
argument of perigee: 68.4983°
revolutions per day: 15.51230093
mean anomaly at epoch: 325.5229°
orbit number at epoch: 40373

The dashed part of the orbit path shows where the satellite is in the earth's shadow,  

DLR